Location: Cleveland
(41.4990°N, 81.6960°W)
Time: 17:00:37
(UTC-04:00)

N. Korean satellite - Pass Details

Date: 01 October 2021
Orbit: 450 x 495 km, 97.3° (Epoch: 25 October)

Event Time Altitude Azimuth Distance (km) Brightness Sun altitude
Rises 06:08:04 0° 23° (NNE) 2,551 10.7 -15.0°
Reaches altitude 10° 06:10:20 10° 35° (NE) 1,674 9.9 -14.6°
Maximum altitude 06:13:30 29° 97° (E) 931 8.8 -14.0°
Drops below altitude 10° 06:16:40 10° 158° (SSE) 1,679 9.5 -13.4°
Sets 06:18:56 0° 170° (S) 2,560 10.3 -13.0°
